Terug naar catalogus

USA 200

ActiefMilitairHEO
NORAD 32706·PAYLOAD·🇺🇸 United States

Gelanceerd Mar 13, 2008 vanaf Vandenberg Space Force Base

Loading…

Volgende Passages (komende 24 uur)

TLE

VersSource: Mike McCants

Epoch: Sep 14, 2026, 21:41 UTC

1 32706U 08010A   26257.90368145  .00000228  00000-0  00000-0 0    00
2 32706  63.4470 301.9510 7144328 268.9662  16.1203  2.00636144  5296

Volg USA 200 in realtime met AllMySat

Download on the App Store